This is the latest recevied weather packets stored in our database for station/object KI5GCD-13. If no packets are shown the sender has not sent any weather packets the latest 10 day(s).
| Time | Temp. | Humidity | Pressure | Rain* | Wind** | Luminosity | Snow |
|---|---|---|---|---|---|---|---|
| 1777957187 | 20° C | 73% | 1001.9 hPa | 0 mm | 0 m/s | - | - |
| 1777956887 | 20° C | 73% | 1001.9 hPa | 0 mm | 0 m/s | - | - |
| 1777956587 | 20° C | 72% | 1001.7 hPa | 0 mm | 0.45 m/s, 214° | - | - |
| 1777956287 | 20° C | 73% | 1001.5 hPa | 0 mm | 0.45 m/s, 231° | - | - |
| 1777955987 | 19.44° C | 75% | 1001.3 hPa | 0 mm | 0.45 m/s, 235° | - | - |
| 1777955687 | 19.44° C | 75% | 1001.9 hPa | 0 mm | 0.45 m/s, 285° | - | - |
| 1777955387 | 19.44° C | 74% | 1001.6 hPa | 0 mm | 0.45 m/s, 243° | - | - |
| 1777955087 | 18.89° C | 78% | 1001.6 hPa | 0 mm | 0 m/s | - | - |
| 1777954787 | 18.89° C | 78% | 1001.6 hPa | 0 mm | 0.45 m/s, 226° | - | - |
| 1777954487 | 18.33° C | 79% | 1001.9 hPa | 0 mm | 0.45 m/s, 220° | - | - |
| 1777954187 | 18.33° C | 80% | 1002.1 hPa | 0 mm | 0.45 m/s, 235° | - | - |
| 1777953887 | 17.78° C | 82% | 1002.2 hPa | 0 mm | 0 m/s | - | - |
| 1777953587 | 17.22° C | 83% | 1002.3 hPa | 0 mm | 0 m/s | - | - |
| 1777953287 | 17.22° C | 86% | 1002.3 hPa | 0 mm | 0 m/s | - | - |
| 1777952987 | 17.22° C | 86% | 1002.6 hPa | 0 mm | 0 m/s | - | - |
| 1777952687 | 17.22° C | 88% | 1002.5 hPa | 0 mm | 0 m/s | - | - |
| 1777952387 | 16.67° C | 88% | 1002.5 hPa | 0 mm | 0 m/s | - | - |
| 1777952087 | 16.67° C | 88% | 1002.6 hPa | 0 mm | 0 m/s | - | - |
| 1777951787 | 16.67° C | 88% | 1002.8 hPa | 0 mm | 0 m/s | - | - |
| 1777951487 | 16.67° C | 88% | 1002.9 hPa | 0 mm | 0 m/s | - | - |
| 1777951187 | 16.67° C | 88% | 1002.6 hPa | 0 mm | 0 m/s | - | - |
| 1777950887 | 16.67° C | 88% | 1002.8 hPa | 0 mm | 0 m/s | - | - |
| 1777950587 | 16.67° C | 87% | 1002.7 hPa | 0 mm | 0 m/s | - | - |
| 1777950287 | 16.67° C | 87% | 1003 hPa | 0 mm | 0 m/s | - | - |
| 1777949988 | 16.67° C | 88% | 1002.9 hPa | 0 mm | 0 m/s | - | - |
* Rain latest hour (hover to see other rain measurements)
** Current wind speed in m/s (hover to see current wind gust speed)